RH
22 21 20 20 20 20 21 24 24 24 24 30 31 28 28 23 25 14 12 13 10 8 7 13 27 53 66 54 30 17 17 18 10 5 6 3 3 2 2 2 2 2 3 4 6
29 29 27 25 24 25 24 24 25 26 28 27 30 33 32 28 24 23 20 15 12 11 6 8 15 27 56 69 47 22 17 19 18 5 6 5 4 3 3 2 3 3 2 3 6
37 37 36 36 34 31 30 29 29 30 28 28 32 31 33 29 22 18 16 12 12 12 11 8 11 20 34 64 62 41 21 19 20 12 4 6 6 4 3 2 2 2 2 3 7
42 44 43 44 43 42 36 34 34 34 31 29 30 33 28 24 20 18 17 15 13 15 17 12 10 12 20 47 80 65 41 27 22 19 6 5 7 6 3 3 2 2 2 2 3
46 49 48 47 48 45 45 44 40 38 34 32 31 30 28 25 22 17 11 12 12 15 24 17 11 12 12 31 69 73 64 45 31 19 18 4 7 8 5 3 4 2 2 2 2
48 49 53 55 52 50 50 51 47 46 42 37 34 30 23 18 23 15 12 13 19 25 33 24 15 16 17 24 54 74 87 66 44 20 20 10 5 9 7 4 4 3 2 3 3
52 54 55 56 57 54 56 58 56 50 46 44 41 31 24 28 25 10 21 27 36 49 41 30 24 27 25 25 43 68 92 80 49 20 19 20 6 8 6 8 6 6 3 3 5
60 59 58 59 59 58 60 60 60 56 54 51 42 36 26 29 22 9 28 38 50 55 58 34 35 35 31 30 48 64 89 82 65 32 19 20 13 5 6 8 8 9 7 6 7
62 67 68 66 63 60 64 63 64 59 63 59 46 39 28 34 26 12 33 38 50 58 63 43 42 38 63 46 60 57 60 73 84 58 26 19 18 11 5 7 7 9 9 8 12
56 64 70 66 62 59 63 64 66 62 66 64 54 42 36 42 28 12 18 39 38 66 73 67 44 54 50 93 23 21 39 63 86 82 48 22 18 23 7 5 6 5 7 9 10
61 66 70 75 68 66 69 68 62 69 70 69 62 44 46 41 24 13 19 33 36 44 73 70 55 51 45 25 26 36 46 57 88 98 93 55 32 30 23 8 5 6 7 8 7
76 80 83 88 79 84 80 75 59 61 50 93 71 58 51 47 26 20 30 34 26 32 66 79 73 42 50 47 46 56 58 52 72 96 94 88 60 44 30 22 9 5 5 7 6
92 92 92 96 91 96 90 81 70 67 55 64 61 59 56 36 20 27 32 33 27 24 62 87 73 60 41 45 38 46 48 51 65 93 95 99 70 57 32 26 26 14 6 5 5
97 97 99 96 92 100 95 90 82 71 64 66 67 61 54 30 27 37 36 30 25 21 45 91 73 79 41 49 52 41 37 71 73 97 94 96 80 71 53 32 24 27 24 13 9
98 98 97 100 98 99 100 92 90 84 96 86 82 66 47 35 31 38 28 28 24 24 38 75 71 69 72 53 55 32 72 76 96 100 98 95 85 67 58 39 30 25 24 27 27
99 99 98 98 99 99 100 95 95 100 100 97 79 64 38 38 41 36 33 27 21 20 92 67 75 67 62 50 54 46 76 100 100 100 100 90 83 59 65 34 45 46 37 29 30
100 100 99 98 100 100 100 100 100 100 98 92 75 52 46 48 47 36 48 32 24 22 56 77 79 76 65 64 72 85 100 92 100 100 79 61 85 40 60 60 57 61 59 58 51
100 100 100 100 100 100 100 100 100 100 98 86 70 46 58 60 41 32 46 95 30 34 40 100 100 74 72 75 73 67 100 98 93 85 54 50 70 41 44 57 62 66 72 70 62
97 94 94 100 100 100 100 100 100 100 88 80 57 46 60 57 39 27 25 100 38 39 100 100 100 98 76 68 76 68 77 83 100 94 57 78 40 36 42 44 56 64 73 77 77
76 84 100 100 100 100 100 100 100 95 81 56 50 53 69 53 27 30 47 100 77 54 64 100 97 96 90 76 59 78 37 58 100 98 90 77 38 29 28 35 43 55 65 72 72
79 100 100 100 100 100 100 100 96 87 67 56 51 82 77 49 22 25 35 100 97 98 100 100 100 100 100 98 69 60 83 80 97 100 81 54 22 20 26 31 30 36 47 59 76
100 100 100 100 100 100 100 100 88 70 64 68 49 92 72 57 41 26 27 100 100 92 100 100 100 100 100 95 81 68 53 67 70 93 70 54 16 17 20 24 25 30 39 42 69
100 100 100 100 100 100 98 89 86 71 51 80 62 78 76 67 56 51 31 70 100 100 100 100 99 98 98 100 100 97 67 60 61 68 61 59 19 24 15 16 18 24 35 40 40
100 100 100 100 100 99 90 73 100 84 59 84 77 86 83 78 89 84 66 71 100 100 100 100 99 100 100 100 100 100 98 98 67 58 50 83 42 20 20 20 17 28 38 36 39
100 100 81 100 100 98 100 100 100 79 76 73 93 81 98 93 100 100 66 57 95 100 100 100 100 99 100 100 100 100 96 92 88 69 56 32 25 22 20 23 29 44 55 58 58
100 100 100 100 100 100 100 100 100 86 62 97 99 86 77 96 95 66 82 80 66 85 100 100 94 92 99 100 100 100 100 81 70 72 57 41 28 23 37 36 32 50 64 61 55
88 98 100 100 100 100 100 100 100 82 61 100 83 100 86 100 86 68 59 60 74 87 99 98 100 98 95 99 98 100 100 100 100 84 53 43 25 27 24 18 24 48 62 59 52
Wind_Speed
46 49 51 53 54 56 59 59 59 57 53 49 47 51 55 58 52 47 47 46 49 57 56 55 51 52 53 51 45 43 39 29 25 24 20 16 16 18 21 26 28 28 29 30 29
47 49 51 52 55 57 58 60 60 60 57 55 52 49 52 55 56 53 48 51 52 59 62 55 54 54 56 53 52 48 40 31 31 29 23 20 19 18 18 20 22 24 26 24 26
49 50 53 55 57 58 57 58 59 60 59 55 54 53 54 53 52 51 49 57 61 62 64 61 57 60 57 55 55 51 42 36 36 34 28 25 23 21 19 18 19 21 25 24 25
48 50 52 54 56 58 58 58 58 58 58 57 54 54 53 54 55 57 58 63 62 62 66 64 60 62 60 57 54 55 45 43 41 40 33 30 28 24 21 21 22 20 21 25 26
48 49 51 54 56 56 56 56 57 56 56 58 57 57 56 56 53 66 69 66 63 65 66 66 62 61 62 59 56 59 50 47 45 44 39 36 33 30 26 25 23 21 23 25 25
52 52 53 53 55 55 57 56 55 54 56 56 55 57 55 53 53 57 60 59 59 65 66 66 64 60 61 60 62 58 54 52 51 50 46 42 39 36 32 30 26 24 24 26 26
55 56 55 55 56 58 57 56 54 53 55 55 54 53 54 52 56 51 54 54 54 60 64 64 63 61 63 60 60 62 58 58 57 55 51 47 46 39 36 34 32 29 27 27 27
57 58 58 58 58 60 59 56 52 53 54 53 51 53 52 52 51 47 51 52 54 58 61 63 64 63 63 62 62 64 61 63 59 58 56 53 49 41 40 40 37 35 34 32 29
59 59 60 61 62 61 60 57 52 52 53 52 51 52 51 54 48 47 48 49 55 59 61 62 64 66 64 64 65 66 64 63 60 60 60 58 52 44 43 43 42 40 38 36 35
62 65 64 64 66 64 61 57 51 50 51 50 50 51 51 54 54 49 50 50 52 60 65 67 66 66 69 69 68 64 65 66 65 63 64 62 57 45 48 46 44 43 43 42 39
64 67 69 67 65 62 60 55 51 50 49 51 52 51 54 60 56 47 52 54 54 60 69 67 69 72 68 64 58 63 65 64 60 59 63 63 61 47 47 50 47 48 47 45 42
69 67 68 67 66 61 58 54 51 50 45 44 48 50 57 58 54 42 53 52 54 59 64 70 74 69 58 63 66 66 64 63 62 61 65 65 65 57 53 56 53 51 50 47 43
69 68 70 66 63 61 57 54 51 50 52 43 48 53 59 54 49 37 51 51 49 56 66 72 69 65 64 64 68 68 65 61 64 63 63 66 71 64 60 60 56 53 50 47 43
69 66 69 65 58 67 57 55 53 52 53 50 53 60 54 44 37 33 45 45 46 53 60 68 67 66 68 68 67 68 62 61 62 65 63 66 74 67 63 64 61 55 51 48 45
66 67 68 60 58 66 56 54 53 55 58 52 55 56 47 39 35 31 39 45 42 48 62 69 72 71 70 69 66 63 58 58 60 61 67 66 72 72 68 69 63 57 53 50 46
65 67 63 57 59 65 57 54 54 56 55 53 58 50 43 38 34 29 32 40 40 51 48 63 63 71 68 65 63 57 54 56 58 60 71 65 64 71 66 69 64 58 54 51 49
63 63 58 55 68 63 57 56 57 51 51 55 53 44 41 35 32 30 31 34 39 47 56 53 69 69 69 67 67 66 63 62 64 67 64 59 64 70 61 62 62 56 52 51 53
62 58 53 56 63 60 58 58 54 50 51 53 48 43 39 37 29 30 32 27 38 44 52 55 45 74 71 67 70 70 72 59 70 67 54 60 64 70 60 57 57 54 54 52 53
53 50 49 62 66 61 58 54 51 50 51 51 45 41 36 35 29 31 35 33 38 48 62 45 56 54 74 67 65 67 79 65 59 61 60 65 55 64 60 54 51 48 50 39 46
44 44 52 63 62 57 54 51 46 45 48 46 43 38 34 32 27 30 34 33 39 50 64 51 32 62 62 69 68 66 59 71 69 58 58 66 60 62 61 52 47 43 39 37 40
40 46 55 59 56 55 50 47 45 41 44 42 39 34 33 28 25 29 36 34 37 52 57 65 49 38 68 68 70 69 68 69 73 73 66 68 64 56 53 47 46 41 41 43 44
44 56 59 55 55 51 46 43 44 39 41 42 38 33 31 26 22 29 38 39 34 54 62 62 53 32 32 50 63 62 66 67 69 67 67 64 57 53 52 48 42 40 38 37 42
53 57 56 53 49 42 42 41 38 35 39 39 36 33 27 24 24 22 32 43 40 41 62 58 60 42 38 42 51 66 65 67 64 61 64 60 58 56 47 42 33 34 36 35 37
56 53 52 54 41 40 40 36 43 35 35 38 34 33 28 21 22 21 23 29 45 39 44 53 60 53 35 41 53 58 62 61 64 67 63 64 52 52 48 41 31 28 27 32 35
52 50 48 54 40 40 42 34 29 29 33 36 35 29 30 17 17 23 23 28 42 45 35 27 46 54 51 45 51 54 62 64 65 59 64 59 58 51 46 39 34 33 30 31 31
50 50 53 47 41 43 39 33 29 31 35 36 36 30 32 26 28 30 23 23 28 41 45 40 35 49 67 51 39 45 68 59 64 62 55 53 60 52 49 46 37 33 34 34 33
50 46 52 49 43 39 36 34 30 31 34 35 37 35 29 32 31 31 31 29 31 29 35 47 43 34 52 64 55 41 44 54 59 55 54 58 53 50 47 44 40 40 38 38 39
Wind_Direction
301 299 298 297 298 298 298 299 295 293 290 283 272 266 261 261 263 264 268 267 259 256 252 252 246 244 241 242 238 238 241 240 240 235 235 213 214 216 214 213 215 217 218 219 215
307 303 299 297 295 295 294 295 293 289 291 286 279 271 263 261 263 264 272 271 263 256 252 251 248 243 240 238 238 235 236 237 241 233 224 214 213 211 209 213 213 213 214 211 206
305 304 303 301 298 296 293 291 291 290 286 287 280 275 268 266 268 267 274 275 266 258 254 247 244 242 240 237 236 235 231 234 238 234 224 214 211 211 203 204 208 207 209 206 202
307 304 301 300 298 297 295 292 290 288 284 284 279 274 273 272 274 274 277 275 264 252 249 245 243 240 239 237 237 235 229 230 233 235 225 216 211 207 203 198 203 203 204 205 205
307 306 305 300 300 298 295 294 293 287 282 280 279 276 274 274 282 282 276 266 253 244 242 241 237 238 237 235 236 232 227 227 229 231 229 219 212 206 200 204 204 200 198 197 197
311 308 309 305 302 300 297 295 294 289 283 279 278 275 273 276 284 282 273 260 246 237 233 236 235 236 235 232 231 234 228 226 225 226 226 222 215 204 202 202 203 201 201 195 194
310 309 309 307 306 302 301 298 295 290 284 281 278 277 273 284 286 281 263 254 241 232 231 230 230 230 232 230 228 230 229 224 225 226 224 224 217 206 204 202 204 200 202 204 199
310 310 310 310 309 304 303 302 298 290 285 282 281 277 274 287 288 278 259 249 241 230 225 227 227 226 229 228 225 227 227 224 224 226 225 225 214 209 209 203 204 203 202 204 205
312 313 313 312 311 307 305 304 300 292 286 284 281 279 277 286 285 274 260 247 242 234 225 224 225 224 226 226 224 225 224 224 223 227 228 226 218 218 213 209 205 207 205 208 207
315 315 315 312 311 309 306 304 301 292 286 283 283 279 283 290 282 272 258 246 239 235 228 222 223 223 219 226 221 222 224 224 224 224 229 228 223 216 219 214 211 208 208 209 211
314 313 313 311 311 308 307 306 302 292 290 285 285 277 287 288 283 277 256 242 236 234 231 225 223 223 221 219 224 225 225 226 228 223 229 230 230 219 224 221 215 214 212 211 213
313 311 310 310 311 309 308 307 302 293 288 287 281 285 293 292 283 279 254 240 235 232 230 228 226 223 220 217 222 224 225 225 226 228 224 227 228 222 219 224 218 218 216 215 214
309 310 309 310 309 310 308 307 300 294 294 288 277 285 296 291 284 253 252 239 237 228 226 227 227 221 220 218 220 221 224 224 227 227 229 224 227 222 220 223 223 220 221 219 218
308 307 308 308 309 307 306 305 299 295 292 291 292 297 299 292 279 252 248 244 237 231 226 226 220 222 219 219 220 222 222 225 227 229 230 228 225 223 219 223 223 223 222 221 221
308 306 307 302 303 305 305 304 298 297 296 296 301 306 303 292 276 258 248 246 240 229 224 222 219 218 220 220 220 220 223 227 233 235 235 231 231 218 215 222 224 222 224 226 225
307 305 303 301 305 306 304 301 297 298 300 300 305 310 302 292 272 251 254 240 231 221 219 223 222 221 221 221 223 221 222 226 229 234 236 233 234 226 218 221 225 225 225 227 231
306 301 300 303 300 303 303 298 298 300 300 304 309 310 302 292 276 263 251 238 227 223 211 218 218 218 221 219 219 218 224 228 233 234 235 229 236 227 218 222 226 228 228 228 231
300 299 299 303 301 300 299 296 300 299 304 307 310 308 297 286 275 266 238 240 218 215 210 228 214 218 217 217 219 216 222 223 227 239 232 234 233 229 224 221 226 228 231 230 231
297 297 301 295 298 296 295 296 301 307 309 308 309 305 293 290 277 261 233 230 215 207 205 229 226 218 222 221 219 217 222 216 230 231 227 237 231 234 231 225 223 226 229 232 233
298 295 296 292 294 293 296 299 307 314 310 313 314 308 298 295 289 255 218 214 217 208 212 214 224 220 222 224 222 223 217 220 225 235 228 233 228 231 231 228 228 224 225 225 226
295 292 289 292 291 293 300 302 313 315 311 316 315 306 299 297 290 246 214 211 214 206 212 220 232 225 220 220 219 218 217 221 224 224 229 229 229 228 232 231 231 227 226 228 230
289 286 289 291 294 297 302 308 312 312 311 312 317 306 299 294 286 248 229 217 214 211 212 221 219 197 214 228 225 224 223 224 223 226 224 227 226 230 231 231 228 227 227 225 231
286 286 291 292 295 297 302 310 310 304 307 304 312 303 296 291 284 262 240 228 217 218 221 225 214 222 230 214 215 226 221 225 227 227 223 226 223 228 230 231 224 224 224 226 224
284 290 294 291 293 310 310 307 303 300 299 299 303 302 290 282 277 276 249 239 227 232 220 227 223 221 193 198 207 217 222 224 228 225 222 224 219 224 228 232 220 216 223 225 223
284 287 290 288 293 300 298 299 296 294 297 298 297 299 286 259 262 260 263 245 238 233 214 225 233 227 202 191 195 212 221 224 228 228 226 223 222 223 227 224 223 224 226 229 224
289 294 291 286 287 289 295 295 285 294 305 291 293 288 290 268 239 249 258 260 247 244 240 231 228 230 219 208 190 190 209 227 232 231 228 224 221 219 221 223 219 219 222 222 220
287 292 291 289 293 293 297 283 287 299 302 293 297 283 285 266 264 259 257 253 257 250 250 243 236 231 231 231 217 198 202 201 218 226 228 226 215 226 221 223 217 217 216 219 218